Regional Weather Roundup
Issued by NWS

Home | Current Version | Previous Version | Text Only | Print | Product List | Glossary Off
Versions: 1 2 3 4 5 6 7 8 9 10 11 12 13 14 15 16 17 18 19 20 21 22 23 24 25 26 27 28 29 30 31 32 33 34 35 36 37 38 39 40 41 42 43 44 45 46 47 48 49 50

000
ASUS45 KBOU 250807
RWRCO

WEATHER ROUNDUP FOR COLORADO
NATIONAL WEATHER SERVICE DENVER/BOULDER CO
200 AM MDT SAT MAR 25 2017

NOTE: "FAIR" INDICATES FEW OR NO CLOUDS BELOW 12000 FEET WITH NO
SIGNIFICANT WEATHER AND/OR OBSTRUCTIONS TO VISIBILITY.

COZ001>005-013-030-031-250900-
...NORTHWEST COLORADO...

CITY           SKY/WX    TMP DP  RH WIND       PRES   REMARKS
CRAIG          FAIR      29  22  75 CALM      30.15F
HAYDEN         FAIR      34  21  60 E10       30.15F WCI  26
MEEKER         FAIR      31  25  78 N3        30.16F
MOUNT WERNER   NOT AVBL
STEAMBOAT SPGS FAIR      31  24  76 SE3       30.18R
WALDEN         NOT AVBL
$$

COZ006>008-011-250900-
...WEST CENTRAL VALLEYS...

CITY           SKY/WX    TMP DP  RH WIND       PRES   REMARKS
GRAND JUNCTION FAIR      45  29  53 E15       30.11F
MONTROSE       FAIR      39  28  64 SE8       30.19R
EAGLE          FAIR      32  24  72 CALM      30.22R
RIFLE          FAIR      36  26  67 S3        30.16F
DELTA          FAIR      38  27  62 N6        30.17S
NUCLA          FAIR      37  30  75 E10       30.20F
$$

COZ017>023-064>068-250900-
...SOUTHWEST COLORADO...

CITY           SKY/WX    TMP DP  RH WIND       PRES   REMARKS
DURANGO        FAIR      32  23  69 CALM      30.18R
CORTEZ         FAIR      33  28  81 NE3       30.18S
PAGOSA SPRINGS FAIR      33  32  97 CALM      30.21F
TELLURIDE      NOT AVBL
WOLF CREEK PAS FAIR      27  14  59 SW13      30.35F WCI  16
$$

COZ009-010-012-014-032>034-037-058>063-250900-
...CENTRAL COLORADO...

CITY           SKY/WX    TMP DP  RH WIND       PRES   REMARKS
ASPEN          FAIR      32  24  72 S7        30.20S WCI  26
BUENA VISTA    FAIR      32  20  62 CALM      30.19F
COPPER MTN     FAIR      27  18  69 MISG      30.28F
BERTHOUD PASS  FAIR      18   7  62 N16G24    30.27R WCI   3
COTTONWOOD PAS FAIR      36  16  44 SW12G24   30.23S
GUNNISON       FAIR      28  25  88 CALM      30.24F
KREMMLING      FAIR      30  23  74 CALM      30.22S
LEADVILLE      FAIR      21  15  78 CALM      30.23F
MONARCH PASS   FAIR      23  19  86 W22       30.38F WCI   8
SALIDA         FAIR      38  25  60 NW9       30.25F
SUNLIGHT       FAIR      25  21  86 SW13      30.30S WCI  13
WILKERSON PASS FAIR      27  16  63 W8G23     30.26S WCI  18
$$

COZ069>075-250900-
...SAN LUIS VALLEY/SANGRE DE CRISTO MOUNTAINS...

CITY           SKY/WX    TMP DP  RH WIND       PRES   REMARKS
ALAMOSA        FAIR      27  25  92 CALM      30.20R
LA VETA PASS   NOT AVBL
SAGUACHE       FAIR      34  23  64 NW15      30.21S WCI  24
$$

COZ035-036-038>040-250900-
...NORTHERN COLORADO FRONT RANGE...

CITY           SKY/WX    TMP DP  RH WIND       PRES   REMARKS
DENVER INTL AP FAIR      31  27  85 S6        30.08F WCI  25
DMNS CITY PARK   N/A     35  31  86 E8        30.08F WCI  29
AURORA         CLEAR     34  30  87 S7        30.09F WCI  28
FRONT RANGE AP FAIR      32  30  93 S7        30.10F WCI  26
ERIE MUNI ARPT FAIR      31  29  94 SW3       30.09F
BOULDER MUN AP FAIR      36  30  80 CALM      30.09F
CENTENNIAL     FAIR      33  28  81 S6        30.09F WCI  28
BROOMFIELD     FAIR      36  30  80 CALM      30.09F
FORT COLLINS   FAIR      35  28  75 NE5       30.09F WCI  31
LONGMONT       FAIR      35  28  74 SW3       30.11F
$$

COZ041-046-047-076>085-087-088-250900-
...PIKES PEAK/PALMER DIVIDE AND SOUTHERN FOOTHILLS...

CITY           SKY/WX    TMP DP  RH WIND       PRES   REMARKS
COLO. SPRINGS  FAIR      30  25  81 N6        30.12F WCI  24
A. F. ACADEMY  FAIR      25  25  99 N7        30.11F WCI  18
SCHRIEVER AFB  FAIR      32  28  84 W5        30.12F WCI  28
ELLICOTT         N/A    N/A N/A N/A NW3       30.11S
FALCON         FAIR      27  25  91 NW7       30.13F WCI  20
FORT CARSON    FAIR      29  26  86 NW7       30.10F WCI  22
LIMON          FAIR      29  27  92 N5        30.10F WCI  24
MONUMENT HILL  FAIR      25  21  86 S6        30.12F WCI  18
TRINIDAD       FAIR      33  28  81 W10       30.12F WCI  25
$$

COZ042>045-048>051-090-091-250900-
...NORTHEAST COLORADO...

CITY           SKY/WX    TMP DP  RH WIND       PRES   REMARKS
GREELEY ARPT   FAIR      27  22  81 NW7       30.10F WCI  19
AKRON          FAIR      33  29  85 W8        30.08F WCI  26
BURLINGTON     FAIR      33  31  92 NW10      30.08S WCI  25
WRAY           FAIR      34  32  93 NW8       30.08F WCI  27
STERLING       FAIR      32  32 100 CALM      30.08F
HOLYOKE        FAIR      36  32  87 NW7       30.08S
FORT MORGAN    FAIR      34  30  87 W8        30.09F WCI  27
$$

COZ086-089-092>099-250900-
...SOUTHEAST COLORADO...

CITY           SKY/WX    TMP DP  RH WIND       PRES   REMARKS
PUEBLO         FAIR      29  26  89 NW3       30.10F
LA JUNTA       FAIR      35  32  88 W6        30.09F WCI  30
LAMAR          FAIR      30  28  92 SW3       30.08F
SPRINGFIELD      N/A     31  29  92 N9        30.06F WCI  23
$$



USA.gov is the U.S. government's official web portal to all federal, state and local government web resources and services.